Regional Weather Roundup
Issued by NWS Green Bay, WI

Home | Current Version | Previous Version | Graphics & Text | Print | Product List | Glossary Off
Versions: 1 2 3 4 5 6 7 8 9 10 11 12 13 14 15 16 17 18 19 20 21 22 23 24 25 26 27 28 29 30 31 32 33 34 35 36 37 38 39 40 41 42 43 44 45 46 47 48 49 50

000
ASUS43 KGRB 240700
RWRGRB

NORTH-CENTRAL AND NORTHEAST WISCONSIN REGIONAL WEATHER ROUNDUP
NATIONAL WEATHER SERVICE GREEN BAY WI
200 AM CDT MON APR 24 2017

WIZ005-009-010>012-018-019-240800-
NORTH CENTRAL WISCONSIN

CITY           SKY/WX    TMP DP  RH WIND       PRES   REMARKS
IRONWOOD       CLOUDY    32  25  75 E9        30.04F
MANITOWISH WTR NOT AVBL
ARBOR VITAE    NOT AVBL
EAGLE RIVER    NOT AVBL
LAND O LAKES   NOT AVBL
RHINELANDER    PTCLDY    34  24  67 SE9       30.02F
PHILLIPS       NOT AVBL
ANTIGO         NOT AVBL
TOMAHAWK       NOT AVBL
MERRILL        NOT AVBL
$$

WIZ013-073-240800-
NORTHEAST WISCONSIN

CITY           SKY/WX    TMP DP  RH WIND       PRES   REMARKS
IRON MOUNTAIN  CLEAR     30  17  58 E5        30.07F
MARINETTE      CLEAR     35  27  72 E12       30.11F
$$

WIZ017-030-035>037-045-240800-
CENTRAL WISCONSIN

CITY           SKY/WX    TMP DP  RH WIND       PRES   REMARKS
MEDFORD        NOT AVBL
WAUSAU         CLEAR     34  27  75 E9        30.03F
MOSINEE        NOT AVBL
MARSHFIELD     CLEAR     37  32  82 SE13      30.01F
WISC RAPIDS    PTCLDY    37  30  75 E6        30.04F
STEVENS POINT  NOT AVBL
WAUPACA        NOT AVBL
SHAWANO        NOT AVBL
CLINTONVILLE   NOT AVBL
WAUTOMA        CLEAR     37  31  78 NE5       30.05F
$$

WIZ038-039-048-051-240800-
FOX VALLEY

CITY           SKY/WX    TMP DP  RH WIND       PRES   REMARKS
NWS GREEN BAY  CLEAR     38  29  70 NE9       30.08F
APPLETON       NOT AVBL
OSHKOSH        CLEAR     39  30  70 E10       30.05F
FOND DU LAC    CLEAR     38  29  70 NE8       30.06F
$$

WIZ022-050-052-240800-
EAST CENTRAL WISCONSIN

CITY           SKY/WX    TMP DP  RH WIND       PRES   REMARKS
EPHRAIM        NOT AVBL
WASHINGTON ISL FAIR      32  25  76 NE7       30.11F
STURGEON BAY   CLEAR     35  28  75 E8        30.10F
MANITOWOC      NOT AVBL
SHEBOYGAN      CLEAR     37  31  78 NE10      30.06F
$$

LMZ563-521-522-541>543-240800-
LAKESHORE

STATION/POSITION TIME  TEMP    WIND        PRES    VSBY  WAVE
                       AIR SEA DIR/SP/G                  HT/PER
                 (UTC) (F)     (DEG/KT/KT) (MB)    (MI)  (FT/S)
SHEBOYGAN LKSHOR 0600   39      10/ 19/ 21 1018.7F
KEWAUNEE LKSHORE 0630   38      40/ 15/ 19 1018.6F
NORTHPORT PIER   0640   35      60/ 13/ 17 1020.0F
N MID LAKE BUOY  0550   35 37   60/ 17/ 19 1021.4F         2/ 4
CHAMBERS ISLAND  0640   35      40/  9/ 13 1019.3F
MENOMINEE LKSHOR 0630   37      40/ 15/ 18 1019.0F
$$




USA.gov is the U.S. government's official web portal to all federal, state and local government web resources and services.